Retour au catalogue

CZ-4C SEP MOTOR COVER

ActifLEO
NORAD 47697·DEBRIS·🇨🇳 China
Ce nom de satellite n'a pas encore été confirmé par des sources officielles.

Lancé Feb 24, 2021 depuis Jiuquan Satellite Launch Center

Loading…

Prochains Passages (prochaines 24 heures)

TLE

FraisSource: Space-Track

Époque: Sep 14, 2026, 09:05 UTC

1 47697U 21014G   26257.37880345 -.00000083  00000-0  10068-4 0  9992
2 47697  63.3992   2.8182 0167896   0.0862   0.0163 13.41618733271963

Suivez CZ-4C SEP MOTOR COVER en temps réel avec AllMySat

Download on the App Store